Dewpoint
44 44 44 44 44 44 44 44 44 44 45 45 45 45 48 48 48 48 46 50 47 47 45 47 48 42 42 39 35 36 32 30 30 28 28 29 26 25 28 28 25 25 30 29 30 27 22 32 32 28 33 38 37 36
44 44 44 43 43 44 44 44 44 44 44 44 44 45 48 48 48 49 46 53 52 50 45 48 49 49 49 45 43 41 33 32 34 34 33 34 32 30 28 24 37 24 31 35 30 31 39 41 39 40 39 38 38 37
43 43 43 43 44 44 44 44 44 44 44 44 44 45 48 47 48 50 48 51 52 46 43 45 45 47 49 50 50 41 46 46 44 42 40 37 34 32 28 30 37 39 40 38 36 39 40 39 39 39 39 38 37 37
43 43 43 43 44 43 43 42 44 44 44 44 46 47 47 47 49 49 48 53 52 47 39 43 48 47 50 50 50 47 49 48 47 43 40 36 37 40 38 38 36 38 40 38 38 39 39 39 39 38 38 38 37 37
43 43 43 43 42 43 43 43 43 44 44 45 47 47 46 47 48 49 50 52 50 45 39 42 46 47 49 48 46 45 42 41 38 40 37 36 39 38 37 39 38 39 38 37 36 40 39 39 39 39 38 37 37 37
43 43 43 43 42 43 43 43 43 43 45 47 46 46 46 46 48 50 47 52 50 48 42 38 46 45 46 47 47 47 47 46 44 42 41 42 44 37 34 36 39 42 40 40 39 41 41 41 40 39 38 37 37 36
42 43 42 42 43 42 42 43 42 43 47 46 46 46 46 47 48 48 45 48 49 48 42 38 41 44 45 45 45 45 45 44 43 41 41 39 38 41 36 34 39 43 42 41 41 41 40 40 39 39 38 38 38 36
42 42 42 42 43 42 43 42 43 45 46 46 46 46 46 47 49 48 51 50 49 47 43 35 39 42 45 42 42 45 42 42 43 40 41 39 39 38 31 38 42 41 41 41 40 40 40 40 39 38 38 35 33 31
41 41 41 41 43 42 42 42 43 46 46 46 46 47 48 46 45 47 50 50 49 45 38 38 36 35 44 43 43 44 41 36 42 39 40 39 37 29 33 42 40 40 40 40 41 40 39 39 38 37 35 33 31 31
40 40 39 41 42 41 41 41 43 46 46 46 46 44 34 43 49 50 47 41 40 42 43 39 41 39 42 41 40 39 39 35 30 38 40 36 36 39 40 42 41 41 41 41 39 39 39 38 37 36 34 32 32 31
40 40 41 41 42 41 41 41 45 45 45 43 40 36 42 48 46 43 37 34 35 34 41 43 43 42 45 39 38 40 34 35 31 36 35 33 34 39 43 43 43 41 41 40 40 40 39 38 37 36 35 34 33 31
40 41 42 43 41 40 41 43 44 42 41 42 43 46 45 40 39 38 35 36 34 33 40 42 42 43 43 41 38 35 32 31 29 36 30 30 35 38 44 43 42 41 41 41 41 40 39 38 37 36 35 33 31 29
41 41 41 41 41 40 42 45 44 43 45 45 42 37 37 35 32 32 31 33 30 37 40 40 38 39 39 40 36 31 28 28 34 28 30 32 33 41 44 42 42 42 42 41 41 40 39 38 38 36 33 30 28 26
41 41 41 41 40 42 43 43 43 42 40 36 34 32 31 30 32 34 33 32 35 40 41 38 37 36 36 36 33 27 31 32 27 24 25 31 38 42 43 42 42 41 41 40 38 37 36 35 33 32 31 29 26 23
42 41 43 42 42 42 42 41 41 40 37 34 34 29 32 33 32 34 35 37 39 42 39 36 35 35 34 32 34 32 29 26 28 24 28 32 41 42 42 42 41 39 37 37 37 35 34 33 32 29 29 29 27 23
41 40 42 42 42 42 41 40 39 38 34 34 33 29 32 31 30 34 36 37 42 39 37 36 33 28 29 32 29 28 28 25 26 32 35 41 41 41 41 41 39 39 38 38 38 37 35 33 32 30 29 28 25 24
38 37 43 42 41 40 40 38 36 33 31 31 30 34 35 35 34 36 37 40 43 36 34 32 25 24 32 29 27 30 28 26 31 35 38 40 40 39 39 39 38 39 38 38 37 36 34 33 32 30 28 27 26 24
37 41 43 41 39 38 37 36 33 31 28 29 30 32 36 35 35 37 39 44 39 36 33 30 33 29 26 24 26 31 34 36 36 37 37 39 39 39 39 39 39 39 38 38 37 35 33 32 32 31 29 27 26 25
40 41 42 40 38 34 29 31 33 27 29 30 32 34 35 36 38 39 40 44 42 39 35 32 28 28 29 32 30 35 36 35 35 35 37 39 39 39 39 39 38 38 37 36 35 34 34 34 33 30 29 27 26 26
42 41 40 40 38 32 30 30 35 29 29 31 33 33 34 35 38 40 42 43 40 35 32 29 30 33 33 37 38 38 36 38 39 36 35 35 38 39 38 38 37 37 36 36 35 33 32 31 31 30 29 28 27 26
38 39 39 38 35 34 34 32 30 31 32 31 33 33 34 37 38 38 40 42 36 31 32 37 38 38 39 39 39 39 39 40 38 38 38 35 36 38 37 37 37 37 35 34 34 31 32 32 31 30 29 28 28 27
38 38 34 35 31 30 29 30 31 33 34 35 33 35 34 33 34 33 40 36 32 39 38 38 39 38 38 38 38 38 38 38 38 37 37 38 36 36 36 36 36 35 35 35 34 33 31 31 31 30 29 27 27 27
36 34 32 31 23 21 22 33 29 32 31 32 33 33 33 30 32 39 33 37 37 38 40 39 39 39 39 39 39 38 38 38 37 38 38 37 36 36 35 34 36 35 33 32 33 32 32 31 30 30 29 29 28 27
36 29 23 23 24 18 30 30 32 32 33 31 32 32 34 35 36 34 35 34 36 38 39 39 40 39 38 38 36 36 37 38 37 38 39 38 36 35 36 35 35 35 35 34 34 33 32 31 30 30 29 28 27 27
17 17 22 22 27 20 21 28 29 31 29 32 31 31 33 34 29 29 33 34 34 35 37 38 38 37 36 36 36 36 38 39 38 37 39 40 39 38 37 35 34 34 36 34 32 32 31 31 30 29 29 28 27 27
10 19 22 23 26 24 23 24 27 30 31 31 32 32 34 32 26 27 34 33 33 34 34 38 38 36 36 37 37 36 37 39 39 38 39 40 40 38 36 35 33 33 35 35 33 32 31 31 30 29 28 27 26 26
12 23 28 31 31 31 28 31 32 32 29 30 33 32 31 25 22 33 34 35 34 36 38 40 40 38 38 38 39 39 40 40 39 39 39 41 40 39 39 36 34 34 35 34 33 33 31 31 30 29 28 26 27 27
27 30 27 29 30 30 25 28 28 27 32 34 32 27 28 27 29 29 32 34 34 36 37 41 41 41 39 39 39 40 39 39 39 39 38 38 38 37 38 38 36 33 35 33 32 32 32 32 33 32 30 29 28 27
28 31 31 26 28 28 26 27 29 31 32 32 29 28 27 28 29 29 31 32 34 38 38 36 35 36 37 38 38 38 38 39 36 33 34 34 33 34 34 34 33 33 33 33 31 32 31 32 33 34 34 33 33 33
27 32 27 25 22 20 21 28 29 31 32 31 30 29 28 29 30 31 30 31 32 32 32 33 33 35 35 35 34 34 34 34 32 34 35 34 35 34 32 34 35 35 35 34 34 34 32 33 32 32 33 32 32 32
31 30 25 26 24 27 29 31 31 31 30 29 30 30 27 28 29 29 29 30 32 33 34 34 33 33 34 35 34 34 33 33 34 34 34 34 34 35 34 35 35 34 34 34 34 33 33 33 32 32 32 32 32 32
28 27 25 23 26 30 31 30 30 29 29 29 30 30 27 26 23 26 28 28 28 29 30 32 32 32 32 32 33 34 34 34 34 34 34 34 33 34 34 34 34 34 34 33 33 33 33 33 33 33 32 32 32 32
26 26 27 27 27 29 29 30 28 26 26 25 26 25 23 23 21 25 28 29 26 25 27 30 32 32 33 33 32 31 30 30 30 32 33 33 33 33 33 33 34 34 34 33 33 33 33 33 33 33 32 32 32 32
Lifted_Index
-1 -1 -1 -0 -0 -0 1 3 5 5 5 6 6 6 5 6 7 7 6 5 3 1 1 1 1 1 1 1 1 1 1 2 2 2 2 2 3 3 4 4 5 5 4 4 4 3 3 3 4 4 3 3 4 4
-1 -1 -0 -0 -0 -0 1 4 5 5 5 6 6 6 6 6 7 7 5 3 2 1 1 1 1 1 1 1 1 1 1 2 2 2 2 2 3 3 4 4 4 4 4 4 4 3 3 4 4 4 3 3 4 4
-1 -1 -0 -0 0 1 2 5 5 5 5 6 6 6 6 7 8 6 4 2 1 1 1 1 0 0 0 1 1 1 1 2 2 2 2 3 3 3 4 4 3 3 3 3 3 3 3 3 4 4 4 4 5 5
-0 -0 -0 0 0 2 4 5 6 6 6 5 6 6 7 8 8 6 4 1 0 0 1 0 -0 -0 0 0 1 1 2 2 2 2 3 3 3 3 3 3 3 3 3 3 3 3 3 3 4 4 5 6 6 7
-0 -0 0 0 1 3 5 6 6 6 5 5 5 6 7 8 7 5 3 1 0 0 -0 -1 -1 -0 -0 0 1 1 2 2 2 3 3 3 3 3 3 3 2 2 2 2 3 3 3 3 4 5 6 7 7 7
0 0 0 1 3 4 5 6 6 6 5 5 6 7 7 7 5 3 1 0 -0 -0 -0 -1 -1 -1 -0 0 1 2 2 2 3 3 3 3 3 3 3 2 2 2 2 2 2 3 3 3 5 6 7 7 8 8
0 1 1 2 4 5 5 5 5 5 5 6 7 7 6 5 4 2 1 -0 -0 -0 -0 -0 -1 -1 -0 0 1 2 2 3 3 3 3 3 3 3 3 2 2 2 2 2 3 3 3 4 5 6 7 7 8 8
1 1 2 4 5 6 5 5 5 5 5 6 7 6 4 4 3 2 1 0 -0 0 0 0 -0 -1 -0 0 1 2 3 3 3 3 3 4 4 4 4 3 2 2 2 2 3 3 3 4 5 6 7 7 8 8
1 2 3 4 5 6 5 5 5 5 5 6 6 5 3 3 3 2 1 0 0 0 1 1 0 -0 -0 0 1 2 3 4 4 3 3 3 4 4 4 3 2 2 2 2 2 3 3 4 5 6 7 7 8 8
2 2 3 5 5 5 5 5 5 5 5 5 5 4 3 3 3 2 1 1 1 1 1 1 0 0 0 1 1 2 3 4 4 3 3 3 3 4 4 3 2 2 2 2 2 2 3 4 5 6 7 7 7 8
2 3 4 5 6 5 5 5 5 5 4 4 4 4 3 3 2 2 1 1 1 1 0 0 0 0 1 1 2 3 3 4 4 3 3 3 3 3 3 2 2 2 3 2 2 2 3 4 5 6 6 7 8 8
3 3 5 6 6 6 5 5 4 4 4 4 4 4 3 3 2 2 2 2 2 1 0 -0 0 0 1 2 2 3 4 4 4 3 3 3 4 3 3 2 2 2 3 3 2 3 3 4 5 6 6 7 8 9
3 4 5 6 6 5 5 4 4 3 3 3 3 3 3 3 3 3 2 2 2 1 0 0 1 1 2 2 3 3 4 4 4 3 3 3 4 4 3 2 2 2 3 3 3 3 4 5 5 6 6 7 8 9
3 4 5 5 6 5 4 4 3 3 3 3 3 4 4 4 4 3 3 2 1 0 0 1 1 2 2 3 4 4 4 4 4 3 3 4 4 4 3 2 2 2 2 3 3 3 4 5 5 6 7 8 9 9
4 4 5 5 5 5 4 3 2 2 3 3 3 4 4 4 4 3 3 2 1 0 0 1 2 2 3 4 4 5 4 4 3 3 4 4 4 3 2 2 2 2 3 3 3 4 4 5 5 6 7 8 9 10
5 5 5 5 5 5 4 3 3 3 3 3 3 4 4 4 3 3 2 1 0 0 1 1 2 3 3 4 5 5 4 4 4 4 4 4 3 2 2 2 2 2 2 3 3 4 4 5 5 6 7 8 9 10
5 5 5 5 5 6 5 4 3 3 3 3 3 4 4 3 2 1 0 -0 -0 0 1 2 3 3 4 4 5 5 4 4 4 5 4 3 2 2 2 2 2 2 3 3 3 4 4 5 5 6 7 8 9 10
4 4 5 5 6 6 6 4 3 3 3 3 3 3 3 2 2 1 -0 -1 -0 0 1 3 4 4 4 4 4 5 5 5 5 4 3 2 2 2 2 2 2 2 3 3 3 4 4 5 5 6 7 8 9 10
3 4 4 5 6 6 5 5 4 3 3 3 3 3 2 2 1 0 -0 -1 -1 0 1 3 4 4 4 4 4 5 5 4 4 4 3 2 2 2 2 2 2 3 3 3 3 4 4 5 5 6 6 7 8 9
3 3 5 5 6 6 5 5 4 4 4 3 3 2 2 1 1 0 -0 -1 -1 0 1 3 4 4 4 4 4 4 4 4 4 4 3 3 2 3 3 3 3 3 3 3 4 4 4 4 5 6 6 7 8 8
2 3 4 6 6 5 5 5 5 4 4 4 3 2 2 1 1 0 -0 -1 -0 0 2 2 3 3 3 3 3 4 4 4 4 4 4 3 3 3 3 3 3 3 3 4 4 4 4 4 5 6 6 7 8 9
2 3 4 6 6 5 5 5 4 4 4 4 3 2 1 1 1 0 -0 -0 0 1 2 2 2 2 2 3 3 4 4 4 4 4 4 4 4 4 4 4 4 4 4 4 4 4 4 5 5 6 7 7 8 9
2 3 4 6 6 5 5 4 4 4 4 3 3 2 2 1 1 0 0 0 0 1 1 2 2 2 3 3 4 4 4 5 5 5 5 6 5 5 5 5 5 5 5 5 5 5 5 5 5 6 7 7 8 8
2 3 4 5 6 5 4 4 4 3 3 3 3 2 2 1 1 1 1 1 1 1 1 1 2 2 3 4 4 5 6 6 6 6 6 7 7 6 6 5 5 5 5 5 5 5 5 5 5 6 6 7 7 7
2 2 3 5 5 4 4 3 3 3 3 3 3 3 2 1 1 1 2 2 1 1 1 1 1 2 2 4 5 6 7 7 7 7 7 7 7 7 6 6 5 5 5 5 5 5 5 5 5 6 6 6 7 7
1 2 3 4 5 4 3 3 3 2 2 2 3 3 2 2 1 2 2 2 1 1 1 1 1 2 2 4 5 6 7 7 7 7 7 7 6 6 6 5 5 5 5 5 5 5 5 5 5 6 6 7 7 7
1 2 3 4 4 3 3 2 2 2 1 2 2 2 2 2 2 2 2 2 1 1 1 2 2 2 3 4 5 6 6 6 7 6 6 6 6 6 6 5 5 5 5 5 5 5 5 5 6 6 6 7 7 8
1 1 2 3 3 3 3 2 2 2 1 1 1 1 1 2 2 3 3 2 1 1 2 2 2 3 3 4 5 5 5 5 5 5 5 4 5 5 5 6 6 6 6 5 5 5 6 6 6 7 7 8 8 8
2 2 2 2 3 3 2 2 2 2 1 1 1 1 2 2 3 3 3 2 2 2 2 2 2 3 3 3 4 4 4 4 4 4 4 4 5 5 6 6 6 7 6 6 6 6 6 7 7 8 8 8 9 9
3 3 2 2 2 2 2 2 2 2 2 2 1 1 2 2 3 3 3 2 2 2 2 2 2 2 3 3 3 3 4 4 4 4 5 5 6 6 7 7 7 7 7 7 7 7 7 8 8 8 9 9 9 9
4 3 3 2 2 2 3 3 3 2 2 1 1 1 1 2 3 3 3 2 2 1 1 1 1 2 2 3 3 3 4 4 4 5 5 6 6 7 7 7 7 7 7 7 7 8 8 8 8 8 8 9 9 9
4 4 3 3 2 3 3 3 2 2 1 1 0 0 0 0 1 3 4 4 2 1 1 1 1 2 2 3 3 3 3 4 4 4 5 5 5 6 6 6 7 7 7 7 7 7 8 8 8 8 8 8 8 8
4 4 4 3 3 2 2 2 2 1 1 1 1 1 0 -0 0 3 6 6 4 2 1 1 2 2 3 3 3 3 3 3 4 4 4 4 5 5 5 6 6 6 6 6 7 7 7 7 8 8 8 8 8 8